Weather reports worldwide

Advertisment
Mühldorf, Germany (10875): temperature & dewpoint: 16.02.2019 22:00:00 - 22.02.2019 22:00:00 (CET)Mühldorf, Germany (10875): temperature 5cm & temperature -5cm: 16.02.2019 22:00:00 - 22.02.2019 22:00:00 (CET)Mühldorf, Germany (10875): temperature -20cm & temperature -100cm: 16.02.2019 22:00:00 - 22.02.2019 22:00:00 (CET)Mühldorf, Germany (10875): wind speed & gusts: 16.02.2019 22:00:00 - 22.02.2019 22:00:00 (CET)Mühldorf, Germany (10875): wind direction: 16.02.2019 22:00:00 - 22.02.2019 22:00:00 (CET)Mühldorf, Germany (10875): reduced air pressure: 16.02.2019 22:00:00 - 22.02.2019 22:00:00 (CET)Mühldorf, Germany (10875): visibility: 16.02.2019 22:00:00 - 22.02.2019 22:00:00 (CET)Mühldorf, Germany (10875): sunshine duration: 16.02.2019 22:00:00 - 22.02.2019 22:00:00 (CET)Mühldorf, Germany (10875): precipitation: 16.02.2019 22:00:00 - 22.02.2019 22:00:00 (CET)
Date & Time tt [°C] td [°C] tt 5cm [°C] tt -5cm [°C] tt -20cm [°C] tt -100cm [°C] ff [km/h] ff [kn] fx [km/h] fx [kn] dd ppp [hPa] vv [km] sd [min] rr [mm]
22.02.2019 22:00:00 2,8 0,0 0,4 3,3 5,0 3,9 9 5 16 9 ENE 1039,6 28 0 0,0
22.02.2019 21:00:00 4,5 1,6 2,1 4,3 5,0 3,9 10 5 16 9 NE 1038,6 24 0 0,0
22.02.2019 20:00:00 5,5 2,7 2,6 5,1 5,0 3,9 7 4 16 9 N 1037,6 27 0 0,0
22.02.2019 19:00:00 6,6 3,4 5,1 6,0 4,9 3,9 9 5 16 9 NNE 1036,7 42 0 0,0
22.02.2019 18:00:00 7,5 4,0 5,5 6,9 4,9 3,9 6 3 14 7 NE 1035,6 49 0 0,0
22.02.2019 17:00:00 8,4 5,2 6,9 8,1 4,7 3,9 7 4 11 6 WNW 1034,7 40 2 0,0
22.02.2019 16:00:00 8,0 5,3 7,6 8,6 4,6 3,9 4 2 27 14 NW 1034,2 29 0 1,2
22.02.2019 15:00:00 9,4 4,9 9,4 9,3 4,5 3,9 19 11 30 16 NW 1033,5 12 2 0,0
22.02.2019 14:00:00 9,3 5,8 8,9 8,7 4,4 3,9 12 6 24 13 NW 1033,2 11 0 0,2
22.02.2019 13:00:00 8,7 5,7 9,6 7,7 4,3 3,9 16 9 24 13 WNW 1032,9 9 0 0,0
22.02.2019 12:00:00 8,3 5,5 8,8 7,3 4,3 3,9 17 9 25 13 WNW 1032,8 7 0 0,0
22.02.2019 11:00:00 7,9 5,7 8,1 6,6 4,2 3,9 14 8 22 12 WNW 1032,4 6 0 0,0
22.02.2019 10:00:00 7,5 5,6 7,4 6,2 4,2 3,9 17 9 26 14 WNW 1031,7 5 0 0,0
22.02.2019 09:00:00 7,1 5,6 6,8 5,8 4,2 3,9 15 8 28 15 WNW 1031,1 4,0 0 0,0
22.02.2019 08:00:00 6,9 5,6 6,4 5,5 4,2 3,9 19 11 31 17 WNW 1030,4 3,6 0 0,4
22.02.2019 07:00:00 7,0 5,8 6,3 5,4 4,2 3,9 21 11 32 17 WNW 1029,7 2,8 0 0,3
22.02.2019 06:00:00 7,3 5,1 6,7 5,2 4,2 3,9 19 11 29 16 WNW 1029,3 5 0 0,0
22.02.2019 05:00:00 6,8 5,1 6,2 5,0 4,2 3,9 17 9 25 13 W 1029,2 5 0 0,0
22.02.2019 04:00:00 6,8 5,1 5,9 4,8 4,2 3,9 14 8 18 10 W 1029,1 5 0 0,0
22.02.2019 03:00:00 6,4 4,9 5,6 4,7 4,3 3,9 11 6 16 9 W 1029,3 6 0 0,0
22.02.2019 02:00:00 6,2 4,7 5,3 4,6 4,3 3,9 10 5 16 9 W 1029,6 6 0 0,2
22.02.2019 01:00:00 6,6 4,3 4,5 4,5 4,4 3,8 5 3 8 4 W 1029,9 7 0 0,0
22.02.2019 00:00:00 6,1 4,2 4,7 4,6 4,4 3,8 7 4 12 7 WNW 1029,8 7 0 0,0
21.02.2019 23:00:00 5,4 3,7 3,9 4,8 4,4 3,8 8 4 13 7 W 1029,8 7 0 0,0
21.02.2019 22:00:00 5,2 3,9 4,4 5,2 4,4 3,8 10 5 11 6 W 1029,6 6 0 0,0
21.02.2019 21:00:00 6,3 4,4 3,4 5,8 4,3 3,8 4 2 8 4 NW 1029,3 9 0 0,0
21.02.2019 20:00:00 7,4 4,7 5,2 6,4 4,2 3,8 5 3 9 5 W 1028,9 11 0 0,0
21.02.2019 19:00:00 7,7 5,1 5,9 7,1 4,1 3,8 5 3 6 4 WNW 1028,6 12 0 0,0
21.02.2019 18:00:00 8,5 5,1 7,0 7,8 3,9 3,8 6 3 8 4 NW 1028,1 14 0 0,0
21.02.2019 17:00:00 9,8 5,0 8,7 8,6 3,7 3,8 7 4 14 8 W 1027,5 16 0 0,0
21.02.2019 16:00:00 10,9 4,1 10,7 9,2 3,5 3,8 11 6 16 9 WSW 1027,3 18 0 0,0
21.02.2019 15:00:00 10,6 3,5 10,8 9,7 3,2 3,8 15 8 23 13 W 1028,2 16 2 0,0
21.02.2019 14:00:00 10,3 3,5 11,4 9,7 3,0 3,8 10 6 19 11 NW 1028,5 17 0 0,0
21.02.2019 13:00:00 9,8 2,8 11,8 9,5 2,8 3,8 11 6 20 11 WNW 1028,9 15 14 0,0
21.02.2019 12:00:00 9,1 2,9 10,8 8,4 2,8 3,8 14 7 25 13 WNW 1029,7 12 33 0,0
21.02.2019 11:00:00 8,4 2,9 10,5 5,9 2,8 3,8 11 6 17 9 W 1029,7 11 60 0,0
21.02.2019 10:00:00 4,5 2,0 5,8 2,3 2,9 3,8 4 2 6 3 W 1030,3 7 39 0,0
21.02.2019 09:00:00 0,1 -0,5 -0,1 0,5 3,0 3,8 5 3 7 4 W 1031,0 2,5 0 0,0
21.02.2019 08:00:00 -0,7 -1,2 -0,9 0,6 3,1 3,8 4 2 5 3 W 1030,8 2,7 0 0,0
21.02.2019 07:00:00 -1,0 -1,7 -3,0 0,6 3,2 3,8 4 2 5 3 NW 1030,2 0,3 0 0,0
21.02.2019 06:00:00 0,9 0,5 -0,1 1,2 3,2 3,8 2 1 4 2 W 1029,6 2,0 0 0,0
21.02.2019 05:00:00 0,6 0,0 -0,1 1,3 3,3 3,8 3 2 4 2 W 1029,8 2,5 0 0,0
21.02.2019 04:00:00 1,2 0,6 0,2 1,5 3,4 3,8 3 2 4 2 WSW 1029,3 2,7 0 0,0
21.02.2019 03:00:00 1,1 0,4 0,4 1,6 3,5 3,8 0 0 5 3 N 1029,1 3,4 0 0,0
21.02.2019 02:00:00 1,1 0,5 0,3 1,5 3,7 3,8 4 2 5 3 E 1029,2 3,8 0 0,0
21.02.2019 01:00:00 1,2 0,6 -0,1 1,6 3,8 3,8 3 1 4 2 E 1029,0 3,7 0 0,0
21.02.2019 00:00:00 0,4 -0,5 -0,7 1,8 3,9 3,8 0 0 3 1 N 1029,3 6 0 0,0
20.02.2019 23:00:00 0,5 -0,2 -0,7 2,0 3,9 3,8 0 0 3 1 N 1028,9 7 0 0,0
20.02.2019 22:00:00 0,9 0,0 -2,2 2,7 4,0 3,8 0 0 2 1 N 1028,8 4,9 0 0,0
20.02.2019 21:00:00 2,4 1,9 -0,3 3,9 4,0 3,8 1 0 5 3 S 1028,1 2,9 0 0,0
20.02.2019 20:00:00 4,0 2,5 2,4 5,0 3,9 3,8 2 1 4 2 N 1027,5 8 0 0,0
20.02.2019 19:00:00 4,5 2,4 2,7 5,8 3,8 3,8 0 0 3 1 N 1026,8 9 0 0,0
20.02.2019 18:00:00 6,1 3,4 3,6 7,1 3,6 3,8 0 0 4 2 N 1026,2 10 0 0,0
20.02.2019 17:00:00 8,3 2,9 7,3 8,2 3,4 3,8 4 2 8 4 W 1025,5 14 0 0,0
20.02.2019 16:00:00 8,6 2,8 9,0 8,9 3,2 3,8 6 3 17 9 W 1025,5 14 0 0,0
20.02.2019 15:00:00 8,7 3,1 10,1 8,8 3,0 3,7 11 6 17 9 W 1025,5 16 5 0,0
20.02.2019 14:00:00 8,3 3,4 9,2 8,8 2,9 3,7 9 5 14 7 W 1025,8 13 0 0,0
20.02.2019 13:00:00 8,2 3,3 10,0 8,9 2,8 3,7 8 4 11 6 W 1025,8 13 2 0,0
20.02.2019 12:00:00 7,2 2,9 9,2 6,8 2,7 3,7 5 3 8 5 W 1026,3 11 4 0,0
20.02.2019 11:00:00 5,8 3,4 6,1 4,8 2,7 3,7 3 1 5 3 SSW 1026,4 8 0 0,0
20.02.2019 10:00:00 4,8 3,5 5,0 3,5 2,7 3,7 0 0 5 3 N 1026,0 6 0 0,0
20.02.2019 09:00:00 3,9 3,1 4,1 2,8 2,7 3,7 3 2 4 2 W 1026,0 4,3 0 0,0
20.02.2019 08:00:00 2,5 2,0 2,5 2,3 2,8 3,7 0 0 4 2 N 1025,7 2,8 0 0,0
20.02.2019 07:00:00 2,6 2,1 1,2 2,3 2,8 3,7 0 0 4 2 N 1025,3 2,7 0 0,0
20.02.2019 06:00:00 3,0 2,4 1,6 2,5 2,8 3,7 3 1 8 4 E 1024,6 4,2 0 0,0
20.02.2019 05:00:00 2,6 2,1 2,2 2,5 2,9 3,7 4 2 5 3 NW 1024,6 4,5 0 0,0
20.02.2019 04:00:00 2,2 1,8 1,4 2,5 2,9 3,7 4 2 5 3 NW 1024,7 3,4 0 0,0
20.02.2019 03:00:00 2,0 1,4 1,5 2,7 2,9 3,7 4 2 5 3 NNW 1024,8 4,2 0 0,0
20.02.2019 02:00:00 3,7 2,5 2,6 3,3 2,9 3,7 5 3 5 3 W 1024,5 6 0 0,0
20.02.2019 01:00:00 4,1 2,7 3,2 3,5 2,9 3,7 4 2 6 4 W 1024,3 9 0 0,0
20.02.2019 00:00:00 3,8 2,5 3,3 3,5 2,9 3,7 6 3 7 4 WNW 1023,9 8 0 0,0
19.02.2019 23:00:00 4,8 2,6 3,0 3,6 2,9 3,7 4 2 6 4 WSW 1023,5 13 0 0,0
19.02.2019 22:00:00 6,3 2,6 3,6 4,0 2,9 3,7 7 4 13 7 W 1022,9 17 0 0,0
19.02.2019 21:00:00 7,4 2,6 5,5 4,2 2,8 3,7 10 5 14 7 NW 1022,1 24 0 0,0
19.02.2019 20:00:00 4,5 2,1 3,1 4,7 2,7 3,7 6 4 8 5 WNW 1022,1 21 0 0,0
19.02.2019 19:00:00 6,0 2,8 1,9 5,5 2,5 3,7 3 2 7 4 WNW 1021,4 23 0 0,0
19.02.2019 18:00:00 8,7 3,1 5,2 6,7 2,2 3,7 3 2 7 4 NW 1020,4 27 0 0,0
19.02.2019 17:00:00 10,3 3,9 7,7 7,8 2,0 3,7 6 3 13 7 W 1020,1 30 12 0,0
19.02.2019 16:00:00 12,0 1,1 12,4 8,5 1,7 3,7 11 6 21 11 WNW 1020,1 34 60 0,0
19.02.2019 15:00:00 11,5 1,8 12,0 7,8 1,6 3,7 16 9 28 15 W 1020,4 21 48 0,0
19.02.2019 14:00:00 11,8 2,3 13,0 6,8 1,5 3,7 19 11 39 21 W 1020,6 20 60 0,0
19.02.2019 13:00:00 11,0 0,9 12,1 4,2 1,5 3,7 20 11 30 16 WNW 1021,3 21 60 0,0
19.02.2019 12:00:00 9,4 -0,4 11,2 0,6 1,6 3,7 4 2 7 4 NE 1021,8 23 60 0,0
19.02.2019 11:00:00 5,5 -0,6 5,4 0,1 1,6 3,7 4 2 7 4 ENE 1023,0 17 60 0,0
19.02.2019 10:00:00 3,3 -2,3 3,8 0,1 1,6 3,7 0 0 5 3 N 1023,4 18 60 0,0
19.02.2019 09:00:00 -0,8 -3,0 -0,1 0,1 1,7 3,7 3 2 4 2 E 1024,2 7 60 0,0
19.02.2019 08:00:00 -3,6 -4,4 -2,5 0,1 1,7 3,7 0 0 6 4 N 1024,5 4,9 14 0,0
19.02.2019 07:00:00 -5,1 -6,3 -6,0 0,1 1,8 3,7 3 2 4 2 W 1024,1 7 0 0,0
19.02.2019 06:00:00 -4,5 -5,5 -6,1 0,2 1,8 3,7 0 0 4 2 N 1023,7 5 0 0,0
19.02.2019 05:00:00 -4,4 -5,1 -6,5 0,2 1,9 3,7 3 2 4 2 WNW 1023,4 3,6 0 0,0
19.02.2019 04:00:00 -4,2 -5,0 -6,1 0,2 1,9 3,7 2 1 4 2 E 1023,0 4,2 0 0,0
19.02.2019 03:00:00 -4,0 -4,6 -5,3 0,3 2,0 3,7 0 0 4 2 N 1023,0 2,6 0 0,0
19.02.2019 02:00:00 -3,7 -4,5 -5,3 0,3 2,1 3,7 0 0 3 2 N 1022,5 3,0 0 0,0
19.02.2019 01:00:00 -2,9 -3,4 -5,4 0,4 2,1 3,7 0 0 3 2 N 1022,4 1,5 0 0,0
19.02.2019 00:00:00 -2,8 -3,3 -5,1 0,5 2,2 3,7 0 0 7 4 N 1022,2 3,7 0 0,0
18.02.2019 23:00:00 -2,4 -3,0 -3,7 0,6 2,3 3,7 1 1 4 2 SW 1021,9 5 0 0,0
18.02.2019 22:00:00 -2,2 -3,2 -5,3 0,7 2,3 3,7 3 1 5 3 NW 1022,0 7 0 0,0
18.02.2019 21:00:00 -1,3 -2,9 -4,0 1,0 2,3 3,7 0 0 5 3 N 1021,7 10 0 0,0
18.02.2019 20:00:00 -0,4 -2,0 -3,6 1,5 2,2 3,7 2 1 6 3 NNW 1021,3 15 0 0,0
18.02.2019 19:00:00 1,2 -1,4 -2,9 3,2 2,0 3,7 2 1 4 2 NW 1021,3 18 0 0,0
18.02.2019 18:00:00 5,2 -0,2 -1,0 5,4 1,7 3,7 0 0 8 5 N 1020,5 23 12 0,0
18.02.2019 17:00:00 10,4 -0,6 9,8 7,3 1,5 3,7 4 2 6 3 NNE 1019,7 29 60 0,0
18.02.2019 16:00:00 11,1 -1,7 12,4 7,7 1,3 3,7 4 2 11 6 ENE 1020,1 27 60 0,0
18.02.2019 15:00:00 10,7 -2,2 11,8 7,1 1,2 3,7 8 4 12 7 E 1020,5 24 60 0,0
18.02.2019 14:00:00 9,7 -2,5 12,7 5,0 1,2 3,7 6 3 9 5 ENE 1021,5 31 60 0,0
18.02.2019 13:00:00 8,0 -3,4 10,9 1,5 1,2 3,7 4 2 7 4 NE 1022,9 27 60 0,0
18.02.2019 12:00:00 5,4 -1,9 5,7 0,0 1,2 3,7 6 3 10 5 E 1024,0 19 60 0,0
18.02.2019 11:00:00 3,2 -2,8 3,1 0,0 1,2 3,7 4 2 8 5 ESE 1025,0 16 60 0,0
18.02.2019 10:00:00 0,7 -2,8 1,0 0,0 1,2 3,7 4 2 5 3 ESE 1025,6 10 60 0,0
18.02.2019 09:00:00 -1,9 -4,9 0,0 0,0 1,3 3,7 0 0 5 3 N 1026,4 6 60 0,0
18.02.2019 08:00:00 -4,8 -6,4 -3,9 0,0 1,3 3,7 0 0 4 2 N 1027,1 7 13 0,0
18.02.2019 07:00:00 -5,5 -6,5 -7,9 0,0 1,3 3,7 0 0 3 2 N 1026,9 4,7 0 0,0
18.02.2019 06:00:00 -5,2 -6,1 -6,6 0,1 1,3 3,7 3 1 3 2 N 1026,8 6 0 0,0
18.02.2019 05:00:00 -4,7 -5,4 -6,2 0,1 1,3 3,7 0 0 2 1 N 1027,0 2,5 0 0,0
18.02.2019 04:00:00 -4,3 -5,2 -5,6 0,1 1,4 3,7 0 0 5 3 N 1027,0 5 0 0,0
18.02.2019 03:00:00 -4,1 -4,8 -5,8 0,1 1,4 3,7 0 0 3 1 N 1027,3 4,2 0 0,0
18.02.2019 02:00:00 -3,5 -4,3 -5,9 0,2 1,4 3,7 0 0 3 1 N 1027,7 0,8 0 0,0
18.02.2019 01:00:00 -3,1 -3,7 -5,7 0,2 1,4 3,7 0 0 4 2 N 1027,7 2,9 0 0,0
18.02.2019 00:00:00 -2,4 -3,0 -5,6 0,2 1,5 3,7 3 2 6 3 ENE 1027,6 8 0 0,0
17.02.2019 23:00:00 -2,1 -3,0 -3,8 0,3 1,5 3,7 1 1 3 2 N 1027,6 8 0 0,0
17.02.2019 22:00:00 -1,6 -2,4 -4,1 0,4 1,5 3,7 3 2 4 2 NW 1027,7 9 0 0,0
17.02.2019 21:00:00 -0,7 -2,2 -3,5 0,5 1,4 3,7 0 0 5 3 N 1027,5 16 0 0,0
17.02.2019 20:00:00 -0,6 -2,4 -3,3 0,7 1,4 3,7 3 2 4 2 W 1027,1 17 0 0,0
17.02.2019 19:00:00 1,8 -1,1 -3,1 1,5 1,2 3,7 3 2 8 5 NNW 1026,7 24 0 0,0
17.02.2019 18:00:00 5,3 -0,5 -0,8 3,2 1,1 3,7 0 0 6 3 N 1025,9 37 10 0,0
17.02.2019 17:00:00 11,6 -0,2 9,3 4,6 1,0 3,7 4 2 8 4 ESE 1024,8 34 60 0,0
17.02.2019 16:00:00 12,0 -0,2 12,5 5,0 0,9 3,7 5 3 11 6 E 1025,2 28 60 0,0
17.02.2019 15:00:00 11,8 -1,2 13,0 4,3 0,9 3,7 6 3 10 6 E 1025,8 41 60 0,0
17.02.2019 14:00:00 10,3 -1,4 11,8 2,6 0,8 3,7 6 4 10 5 ESE 1026,5 35 60 0,0
17.02.2019 13:00:00 8,9 -1,5 10,9 0,4 0,8 3,7 6 3 10 5 ENE 1027,6 22 60 0,0
17.02.2019 12:00:00 6,8 -2,8 8,6 -0,1 0,8 3,7 2 1 6 3 E 1029,0 20 60 0,0
17.02.2019 11:00:00 4,9 -2,0 3,6 -0,1 0,9 3,7 3 1 5 3 SE 1029,6 18 60 0,0
17.02.2019 10:00:00 1,2 -2,2 2,2 -0,1 0,9 3,7 3 2 6 3 ESE 1030,5 9 60 0,0
17.02.2019 09:00:00 -1,9 -3,8 -0,6 -0,1 0,9 3,7 3 2 5 3 E 1031,2 6 60 0,0
17.02.2019 08:00:00 -4,3 -5,1 -3,8 -0,1 0,9 3,7 0 0 3 2 N 1031,5 2,7 11 0,0
17.02.2019 07:00:00 -4,9 -5,7 -6,3 -0,1 0,9 3,7 0 0 3 2 N 1031,2 4,8 0 0,0
17.02.2019 06:00:00 -4,7 -5,3 -6,1 -0,1 0,9 3,7 0 0 3 2 N 1031,0 3,2 0 0,0
17.02.2019 05:00:00 -4,2 -4,9 -5,2 -0,1 0,9 3,7 3 1 3 2 ESE 1030,8 2,5 0 0,0
17.02.2019 04:00:00 -4,1 -4,9 -6,0 -0,1 0,9 3,7 2 1 3 2 ENE 1030,8 3,2 0 0,0
17.02.2019 03:00:00 -3,6 -4,1 -5,0 0,0 0,9 3,7 0 0 3 2 N 1031,1 1,7 0 0,0
17.02.2019 02:00:00 -3,3 -3,8 -5,6 0,0 0,9 3,7 2 1 3 1 ESE 1031,3 2,2 0 0,0
17.02.2019 01:00:00 -2,8 -3,4 -5,0 0,0 0,9 3,7 0 0 5 3 N 1031,3 3,1 0 0,0
17.02.2019 00:00:00 -2,3 -3,2 -4,3 0,0 0,9 3,7 4 2 6 4 E 1031,3 8 0 0,0
16.02.2019 23:00:00 -1,9 -2,4 -4,7 0,0 0,9 3,7 2 1 3 2 WSW 1031,5 1,8 0 0,0
16.02.2019 22:00:00 -1,5 -2,3 -3,7 0,0 0,9 3,7 0 0 3 2 N 1031,8 7 0 0,0

tt = temperature
td = dewpoint
tt 5cm = temperature 5cm
tt -5cm = temperature -5cm
tt -20cm = temperature -20cm
tt -100cm = temperature -100cm
ff = wind speed
fx = gusts
dd = wind direction
ppp = reduced air pressure
vv = visibility
sd = sunshine duration
rr = precipitation

Next stations